Location: Brno
(49.2000°N, 16.6330°E)
Time: 10:18:31
(UTC+02:00)

Iridium 2 - Visible Passes

Search period start: 26 June 2016 00:00
Search period end: 06 July 2016 00:00
Orbit: 514 x 525 km, 85.5° (Epoch: 25 June)

Date Brightness Start Highest point End Pass type
(mag) Time Alt. Az. Time Alt. Az. Time Alt. Az.
26 Jun 3.6 22:54:35 16° S 22:57:33 86° E 23:01:26 10° N visible
27 Jun 3.7 22:40:46 15° S 22:43:56 71° E 22:47:47 10° N visible
28 Jun 6.5 00:18:35 10° W 00:19:55 11° WNW 00:21:15 10° NW visible
28 Jun 3.9 22:26:55 12° SSE 22:30:18 58° E 22:34:07 10° NNE visible
29 Jun 6.4 00:04:11 10° W 00:06:11 14° WNW 00:08:10 10° NW visible
29 Jun 4.1 22:13:04 10° SSE 22:16:41 47° E 22:20:24 10° NNE visible
29 Jun 6.3 23:50:01 10° WSW 23:52:26 16° WNW 23:54:53 10° NNW visible
30 Jun 4.4 21:59:29 10° SSE 22:03:04 39° E 22:06:41 10° NNE visible
30 Jun 6.2 23:35:57 10° WSW 23:38:43 19° WNW 23:41:31 10° NNW visible
01 Jul 4.6 21:46:01 10° SSE 21:49:27 32° E 21:52:57 10° NNE visible
01 Jul 5.9 23:21:57 10° SW 23:25:00 22° WNW 23:28:05 10° NNW visible
02 Jul 5.7 23:08:02 10° SW 23:11:18 26° WNW 23:14:35 10° NNW visible
03 Jul 5.4 22:54:09 10° SW 22:57:35 31° WNW 23:01:04 10° NNW visible
04 Jul 5.1 22:40:19 10° SSW 22:43:53 36° W 22:47:31 10° N visible
05 Jul 4.8 22:26:31 10° SSW 22:30:12 44° W 22:33:56 10° N visible
